Simultaneous Nadir Overpasses (SNOs) Predictions

Prediction of SNOs between LANDSAT-8 and NPP Satellite Orbit:

Table of predicted SNOs for the next 14.0 days since TLE Epoch: 8/21/2021
Index Date (LANDSAT-8) Time (LANDSAT-8) Lat,Lon (LANDSAT-8) SZA (LANDSAT-8 ) Date (NPP) Time (NPP) Lat,Lon (NPP) SZA (NPP ) Distance(km) Time Diff (sec)
1 08/21/2021 06:08:57 -70.71, -94.87 121.38 08/21/2021 06:07:48 -70.80, -96.71 121.23 68.23 69
2 08/21/2021 06:58:34 70.06, 71.82 58.01 08/21/2021 06:58:20 70.04, 71.79 57.99 2.37 14
3 08/21/2021 07:48:04 -69.95,-120.70 122.09 08/21/2021 07:49:02 -69.96,-120.77 122.08 2.75 58
4 08/23/2021 22:25:37 -70.15, 20.18 121.02 08/23/2021 22:24:32 -70.13, 20.11 121.03 3.32 65
5 08/23/2021 23:15:05 69.99,-172.40 58.84 08/23/2021 23:15:16 70.01,-172.39 58.86 2.37 11
6 08/24/2021 00:04:41 -69.55, -5.37 121.57 08/24/2021 00:05:51 -69.55, -4.40 121.61 37.80 70
7 08/26/2021 14:42:08 -70.08, 135.96 120.17 08/26/2021 14:41:28 -70.10, 135.94 120.15 2.50 40
8 08/26/2021 15:31:35 69.97, -56.55 59.74 08/26/2021 15:32:12 69.98, -56.58 59.75 1.71 37
9 08/29/2021 06:09:01 70.54, 84.88 61.21 08/29/2021 06:07:51 70.63, 83.54 61.34 50.63 70
10 08/29/2021 06:58:38 -70.05,-108.19 119.26 08/29/2021 06:58:24 -70.07,-108.25 119.24 2.48 14
11 08/29/2021 07:48:05 69.94, 59.29 60.65 08/29/2021 07:49:08 69.95, 59.24 60.66 2.53 63
12 08/31/2021 22:25:37 70.12,-159.84 61.76 08/31/2021 22:24:37 70.13,-159.90 61.78 2.29 60
13 08/31/2021 23:15:08 -69.97, 7.57 118.38 08/31/2021 23:15:18 -69.98, 7.65 118.37 3.11 10
14 09/01/2021 00:04:44 69.36, 174.38 61.04 09/01/2021 00:05:53 69.39, 175.82 61.04 56.66 69
15 09/03/2021 14:42:08 70.03, -44.09 62.65 09/03/2021 14:41:32 70.05, -44.01 62.67 3.64 36
16 09/03/2021 15:31:38 -69.94, 123.41 117.44 09/03/2021 15:32:14 -69.95, 123.46 117.43 2.60 36



Historial Predications of SNOs between LANDSAT-8 and NPP
